Weather in Sovetskiy

Russia / Novosibirsk Oblast     54°01′45″N   77°01′57″E
temp.,
°C
wind,
m/s
gust,
m/s
humid.,
%
clouds,
%
prec.,
mm/h
press.,
hPa
HPBL,
m
1 march, mon
mon101:00−7ese5995100 0.9 1011334
04:00−6ene4696100 1.8 1008204
07:00−9ene349794 1.9 100747
10:00−7ene3496100 0.4 1007123
13:00−4ene3496100 1.8 1007162
16:00−3ne3397100 1.3 1007160
19:00−6n4596100 2.1 1008151
22:00−9n469596 0.3 1010188
2 march, tue
tue201:00−14nw449688 0.4 101362
04:00−17nw349784 0.0 101548
07:00−19wnw339874 0.0 101620
10:00−19w229860 0.0 101721
13:00−16w239164 0.0 1018219
16:00−13sw2390100 0.1 1016322
19:00−14wsw119698 0.2 101620
22:00−14ssw129685 0.1 101620
3 march, wed
wed301:00−15sw229781 0.1 101520
04:00−15wsw229680 0.1 101528
07:00−15sw239683 0.2 101646
10:00−14ssw349680 0.1 1017130
13:00−13sw589386 0.1 1018342
16:00−14ssw699199 0.0 1018378
19:00−14s6129199 0.0 1018449
22:00−11ssw61293100 0.1 1017487
4 march, thu
thu401:00−9ssw61294100 0.4 1016503
04:00−8ssw71394100 0.6 1014513
07:00−7ssw71393100 0.9 1014492
10:00−5ssw81493100 0.3 1012598
13:00−3ssw91393100 0.6 1012728
16:00−2ssw91493100 0.3 1010857
19:00−2ssw91593100 0.6 1010842
22:00−2ssw91595100 0.5 1008787
5 march, fri
fri501:00−2ssw81587100 0.8 1007618
04:00−2ssw71396100 0.6 1005569
07:00−2sw61196100 1.1 1006552
10:00−4w71290100 0.3 1009548
13:00−7w7128576 0.3 1013587
16:00−7sw712840 0.0 1017572
19:00−8ssw8158633 0.0 1017652
22:00−6sw101883100 0.0 1016913